Location: Johnson City
(36.3130°N, 82.3540°W)
Time: 08:57:49
(UTC-05:00)

ISS - Visible Passes

Search period start: 20 February 2018 00:00
Search period end: 02 March 2018 00:00
Orbit: 403 x 407 km, 51.6° (Epoch: 21 February)

Date Brightness Start Highest point End Pass type
(mag) Time Alt. Az. Time Alt. Az. Time Alt. Az.
24 Feb -2.2 06:40:26 10° SSW 06:43:28 37° SE 06:46:32 10° ENE visible
25 Feb -1.1 05:49:04 10° S 05:51:23 18° SE 05:53:41 10° E visible
26 Feb -3.9 06:32:04 10° SW 06:35:20 75° NW 06:38:36 10° NE visible
27 Feb -3.0 05:41:20 23° SSW 05:43:06 49° SE 05:46:17 10° ENE visible
28 Feb -1.3 04:51:47 21° ESE 04:51:47 21° ESE 04:53:35 10° ENE visible
28 Feb -2.8 06:24:29 11° W 06:27:18 30° NW 06:30:14 10° NNE visible
01 Mar -3.8 05:34:44 56° WNW 05:34:55 57° NW 05:38:09 10° NE visible
